Lapse_Rate
5.7 5.9 6.0 6.1 6.1 6.2 6.3 6.2 6.2 6.4 6.5 6.4 6.4 6.5 6.6 6.8 6.5 6.3 6.6 6.7 6.6 6.5 6.4 6.3 6.2 6.0 5.7 6.0 6.0 5.8 5.1 5.2 6.0 6.3 7.0 8.0 7.8 7.8 7.6 7.5 8.0 8.7 8.8 8.6 8.1
5.4 5.6 5.7 5.9 6.1 6.2 6.4 6.3 6.1 6.1 6.2 6.3 6.2 6.3 6.4 6.6 6.3 6.2 6.5 6.5 6.5 6.4 6.2 6.1 6.0 5.9 5.6 6.1 5.5 5.6 5.4 5.6 6.6 6.6 6.6 7.1 7.4 7.6 7.2 7.7 8.1 8.2 8.6 8.5 8.1
5.3 5.4 5.5 5.6 5.7 6.0 6.3 6.3 6.3 6.2 6.2 6.2 6.1 6.2 6.3 6.3 6.2 5.9 6.0 6.2 6.2 6.1 6.0 5.9 5.8 5.7 5.6 5.6 5.8 5.8 5.3 5.9 5.9 6.2 6.2 6.2 6.8 7.5 6.9 6.9 7.7 8.0 7.5 8.5 8.3
5.4 5.5 5.4 5.4 5.5 5.7 6.1 6.2 6.3 6.4 6.2 6.2 6.2 6.1 6.1 6.3 5.8 5.4 5.5 5.8 5.6 5.4 5.5 5.4 5.2 5.3 5.2 5.1 5.6 4.8 5.4 5.2 5.3 5.8 5.8 5.8 6.3 6.9 7.0 6.7 7.3 7.7 7.4 7.3 7.6
5.2 5.4 5.4 5.4 5.5 5.6 5.7 6.1 6.1 6.1 6.2 6.1 6.0 5.9 5.9 6.0 5.7 5.7 5.6 5.6 5.0 5.0 5.1 5.1 5.2 4.9 4.8 5.0 5.1 4.9 5.2 5.4 5.1 5.3 5.6 5.8 5.9 6.1 7.0 6.9 7.3 7.8 7.6 7.4 7.0
5.2 5.4 5.3 5.2 5.4 5.6 5.6 5.8 6.0 6.1 6.1 6.0 6.0 5.8 5.8 5.7 5.5 5.4 5.2 5.3 5.2 5.0 5.0 4.9 4.8 4.8 4.7 4.8 5.0 5.2 5.1 5.0 5.3 5.4 5.9 6.4 6.4 6.7 6.8 7.1 7.0 7.5 7.9 7.8 7.6
5.5 5.2 5.1 5.2 5.2 5.6 5.6 5.7 5.9 6.1 6.2 6.0 5.8 5.6 5.7 5.5 5.2 5.1 5.3 5.1 5.0 4.7 5.2 5.1 5.0 4.6 4.4 4.8 5.0 4.9 5.1 5.4 5.7 6.1 6.1 6.7 5.9 6.4 7.0 7.5 7.7 7.6 8.0 8.4 8.2
5.5 5.3 4.9 5.1 5.3 5.5 5.5 5.7 5.7 5.9 6.0 5.9 6.0 5.9 6.0 5.9 5.6 5.1 5.0 5.0 4.9 4.7 5.2 5.2 4.6 4.4 4.3 4.6 4.9 5.0 5.0 4.9 5.5 6.5 6.5 7.3 5.7 6.9 7.3 7.4 7.4 8.0 7.9 8.1 8.6
6.0 5.6 5.2 5.3 5.4 5.4 5.5 5.7 5.7 5.7 5.7 5.8 5.9 5.7 5.8 5.6 5.4 5.4 5.3 4.9 4.7 4.5 4.7 5.2 4.6 4.6 4.8 4.8 4.9 5.3 4.9 5.3 5.4 6.2 6.5 7.1 6.1 6.3 6.9 7.4 7.2 7.3 7.9 7.6 7.6
5.8 5.8 5.3 5.4 5.5 5.7 5.6 5.8 5.7 5.6 5.4 5.4 5.5 5.4 5.5 5.2 4.9 4.9 4.8 4.8 5.4 5.2 4.7 4.6 4.7 4.9 5.4 5.0 5.0 5.4 5.3 5.3 5.2 5.9 6.8 6.6 6.4 6.2 6.5 6.9 7.0 7.1 7.4 7.6 8.0
5.6 5.5 5.3 5.3 5.6 5.6 5.6 5.8 5.8 5.6 5.4 5.3 5.4 5.4 5.2 5.2 4.5 4.5 4.9 4.4 5.1 5.6 5.3 5.1 4.8 5.5 5.8 5.7 5.6 5.5 5.5 5.5 5.8 6.2 6.4 6.4 6.5 6.3 6.5 6.8 6.8 7.2 7.5 7.7 7.7
5.7 5.6 5.4 5.2 5.3 5.6 5.7 6.0 5.8 5.5 5.7 5.5 5.4 5.4 5.4 5.0 4.7 4.5 5.0 5.5 5.4 5.8 5.3 5.4 5.5 5.7 5.3 5.6 5.6 5.8 5.9 5.9 5.9 6.2 6.7 6.8 6.5 6.4 6.4 6.7 7.1 7.3 7.5 7.8 8.1
5.7 5.5 5.3 5.0 5.3 5.6 6.1 5.9 5.8 5.6 5.5 5.6 5.4 5.3 5.3 5.1 5.2 4.7 5.6 5.8 5.7 5.9 5.6 5.1 6.2 5.9 5.6 5.8 5.9 6.0 5.8 5.9 5.9 6.0 6.2 6.5 6.5 6.5 6.7 6.9 6.9 7.0 7.4 7.9 8.1
5.3 5.1 5.3 4.6 5.1 5.5 5.8 5.7 5.7 5.3 5.6 5.5 5.4 5.3 5.2 5.3 5.6 5.2 5.1 5.8 5.8 5.6 5.4 5.6 5.8 5.7 5.8 6.0 6.2 5.7 6.4 6.4 6.2 6.2 5.7 6.4 6.1 6.2 6.4 6.6 6.7 6.8 7.6 8.0 7.9
5.2 4.9 4.2 4.2 5.0 5.3 5.3 5.8 5.9 5.4 5.2 5.5 5.5 5.4 5.5 5.7 5.8 5.4 5.4 5.5 5.4 5.4 5.0 5.0 5.1 5.6 5.9 6.1 6.1 5.7 5.8 6.2 6.5 6.6 6.8 6.1 6.6 6.1 6.2 6.3 6.3 6.4 7.7 8.2 8.1
5.0 4.7 4.1 4.5 4.9 4.8 5.2 5.5 5.5 5.7 5.3 5.4 5.3 5.7 6.0 5.9 5.8 5.6 5.7 5.6 5.3 5.1 5.2 5.0 5.3 5.6 5.3 5.6 5.8 5.5 6.0 6.4 6.9 7.2 7.1 6.3 7.1 7.4 6.5 6.4 6.7 7.5 7.9 7.9 7.6
4.9 4.2 4.5 4.5 5.5 4.7 4.8 5.4 5.5 5.3 5.5 5.4 5.7 6.1 6.3 5.8 5.5 5.3 5.5 5.8 5.5 4.9 4.9 5.0 5.5 5.9 5.6 5.8 6.4 6.6 6.5 5.3 5.8 6.9 7.7 7.9 8.1 7.1 7.2 7.8 8.1 7.9 7.8 7.8 8.0
4.3 4.4 5.0 5.4 4.8 5.1 5.3 5.3 5.6 5.5 5.6 5.8 6.0 6.1 6.3 5.5 5.6 5.5 5.5 5.6 5.4 5.2 4.7 4.7 4.6 5.0 6.5 5.9 5.5 6.2 7.0 7.5 6.9 7.0 7.1 7.2 7.6 7.7 8.1 8.3 8.1 7.7 7.3 7.9 8.0
4.1 4.8 5.4 5.3 5.3 5.4 5.5 5.6 5.9 6.0 6.6 6.3 6.1 6.0 5.7 5.5 5.8 5.5 5.6 5.2 4.9 4.8 4.7 4.7 4.5 4.6 4.7 6.0 7.6 6.9 7.2 7.8 8.2 8.0 7.5 7.8 7.9 7.9 7.9 7.9 8.2 8.3 8.5 7.7 7.9
4.7 5.3 5.4 5.5 5.5 5.6 5.7 5.6 6.0 6.7 6.6 6.7 6.5 6.0 6.1 5.8 5.8 5.4 5.4 5.2 5.4 5.2 5.2 5.0 4.3 4.7 5.5 5.9 6.3 8.3 7.5 7.5 8.4 6.8 7.3 7.4 7.0 6.5 6.8 7.0 7.6 8.2 7.8 7.4 7.8
5.1 5.3 5.4 5.5 5.7 5.7 5.5 6.1 6.5 6.9 7.1 6.7 6.6 6.0 5.7 5.9 5.7 5.4 5.5 5.3 5.3 5.3 5.7 5.5 5.6 5.5 6.7 7.2 7.0 7.9 8.6 8.4 7.8 8.0 7.8 7.7 7.8 6.5 6.6 6.4 7.0 6.5 6.3 7.4 6.5
5.5 5.2 5.6 5.7 5.6 5.3 6.2 7.0 6.9 7.2 7.0 6.7 6.3 6.0 5.6 5.3 5.2 5.2 5.3 5.3 5.1 5.0 5.3 6.2 6.6 6.9 7.6 8.3 8.0 7.5 7.6 8.0 7.6 7.4 7.0 7.4 7.4 6.9 7.2 6.8 6.5 6.6 5.1 6.0 5.9
5.4 5.5 5.5 5.5 5.7 6.2 6.8 6.9 7.2 7.0 6.9 6.5 5.9 5.6 5.2 5.1 5.1 5.3 5.3 5.2 5.4 5.6 6.1 6.8 7.3 7.2 7.8 8.3 8.2 8.0 7.5 7.6 7.3 7.4 7.1 7.0 7.6 7.1 7.0 7.0 6.7 6.3 5.1 5.1 4.5
5.3 5.3 5.2 5.5 6.7 7.1 7.7 7.2 7.1 6.8 6.3 5.8 5.5 5.1 5.2 5.4 5.2 5.5 5.3 5.6 6.1 6.9 7.5 7.2 7.4 7.4 7.5 7.7 7.9 7.9 7.9 8.1 8.2 7.6 7.8 8.1 8.2 7.8 7.4 6.8 7.6 6.5 5.3 5.4 5.5
5.5 5.6 6.5 6.8 7.0 7.3 7.5 7.5 7.2 6.4 5.9 5.4 5.2 5.2 5.4 5.5 5.5 5.4 5.6 6.8 7.3 7.7 7.6 7.3 7.4 7.6 7.6 7.8 7.8 7.7 8.1 8.2 8.3 8.7 8.1 8.6 8.4 7.7 7.7 7.0 6.6 6.3 6.5 6.0 5.8
5.9 6.1 6.9 7.4 7.5 7.6 7.8 6.8 6.2 5.8 5.8 5.5 5.2 5.3 5.4 5.5 5.5 6.1 6.6 7.5 8.1 7.8 7.5 7.7 7.3 7.3 7.9 8.1 8.1 8.1 7.8 8.2 8.1 8.3 8.4 8.3 7.7 7.4 7.5 7.2 7.2 6.6 6.3 6.6 6.4
6.6 7.5 7.4 8.1 7.8 7.5 7.1 6.6 5.9 5.8 5.7 5.5 5.4 5.5 5.6 5.8 6.1 6.9 7.6 7.7 8.0 7.5 7.3 7.4 7.3 7.2 7.6 8.0 7.9 7.6 7.6 7.7 7.4 7.5 7.5 7.4 7.0 7.2 7.4 7.5 7.2 7.0 6.7 6.9 7.2
Wind_Speed
6 8 10 10 12 14 17 18 18 19 20 21 22 21 22 22 24 2 6 8 5 6 2 4 2 3 2 3 4 3 1 5 7 8 8 15 12 7 8 7 9 5 3 7 7
6 9 10 12 12 14 15 18 19 20 20 20 22 22 22 22 4 6 9 7 7 3 1 1 3 0 1 4 3 5 5 8 8 7 9 16 17 8 7 11 9 9 4 7 8
7 8 11 13 14 15 16 17 19 20 20 21 22 23 22 19 5 4 4 7 4 5 3 2 3 1 4 3 5 5 11 7 7 9 10 15 21 16 3 6 7 1 13 3 5
5 7 10 13 16 16 17 19 18 20 20 20 21 20 21 3 3 2 9 8 6 3 2 2 2 1 2 4 6 9 15 9 6 12 12 17 18 19 7 8 9 8 6 4 11
6 6 10 13 15 17 18 20 20 20 21 20 19 16 6 1 7 7 6 8 3 2 4 3 4 3 4 4 6 8 13 12 11 14 15 16 18 15 20 11 11 9 7 7 8
7 6 8 13 15 19 21 21 22 21 19 18 13 8 2 3 5 1 8 4 7 4 4 3 4 4 5 2 2 6 8 8 5 7 8 11 13 6 8 9 10 10 11 9 9
8 7 7 11 15 19 20 22 22 20 17 12 8 2 3 12 3 13 5 3 2 2 3 4 3 2 3 7 1 7 9 10 5 4 6 6 18 11 7 11 10 11 11 12 10
9 7 7 11 14 18 21 22 23 20 16 8 5 2 6 7 9 8 6 6 5 4 3 7 3 2 4 2 7 7 6 5 3 6 5 4 23 8 10 9 15 15 11 10 17
9 7 7 10 14 17 23 23 25 18 11 6 2 2 8 12 2 7 2 4 6 6 6 5 2 4 3 1 4 2 8 10 11 6 6 5 18 3 8 6 8 6 8 5 8
9 8 8 10 14 17 22 23 9 3 3 4 4 2 6 5 4 7 5 8 9 4 4 1 3 2 3 3 3 5 6 6 7 2 9 10 16 18 9 4 10 8 9 9 8
9 10 9 11 13 16 10 3 4 2 1 6 2 3 5 7 4 3 6 5 5 6 1 4 3 6 13 11 10 10 8 14 14 14 4 17 19 21 15 8 10 8 8 8 10
8 9 11 11 15 17 1 5 4 3 5 7 12 7 6 4 4 5 6 4 5 4 6 6 5 9 7 10 10 13 14 17 20 16 8 10 14 17 16 8 9 13 7 8 8
7 5 10 13 18 6 4 6 3 5 0 6 5 4 4 3 3 6 4 2 2 3 4 2 11 12 8 7 11 7 5 6 11 7 6 5 10 9 9 6 7 8 9 8 9
5 5 6 14 4 2 1 2 4 4 3 2 4 3 1 1 2 3 2 2 5 4 5 6 5 13 14 12 8 14 5 11 12 10 8 3 14 22 7 10 8 10 10 9 9
5 5 6 3 4 2 4 1 5 4 0 6 4 2 1 2 3 2 4 5 2 6 1 7 8 13 10 7 6 10 9 7 8 11 5 22 3 14 1 9 7 9 14 9 8
4 4 8 1 1 3 2 3 3 4 5 4 4 4 2 4 4 2 6 6 4 4 3 5 4 2 2 9 10 12 15 11 5 5 8 21 11 5 17 8 8 18 16 10 8
4 3 4 4 3 2 2 3 3 3 7 4 3 4 4 2 3 4 4 7 2 6 4 5 3 3 9 10 8 18 8 5 3 3 11 16 12 15 14 7 11 13 14 14 11
3 3 4 4 3 4 3 3 3 4 4 4 4 2 3 5 5 5 4 5 7 6 4 4 4 8 10 5 5 7 1 3 5 7 8 15 6 11 10 15 17 21 23 9 8
1 1 2 3 5 4 3 2 3 2 3 3 2 1 4 6 4 6 6 5 6 9 4 5 4 9 7 9 2 7 3 7 8 10 7 6 8 5 22 22 24 21 16 5 3
3 3 2 7 6 4 3 3 3 4 2 3 3 4 4 4 4 4 3 5 4 6 2 2 12 2 3 5 6 2 7 6 3 2 5 4 6 7 18 19 23 20 21 20 11
2 4 3 8 3 3 3 2 5 7 4 4 3 3 5 5 5 4 3 3 2 6 6 2 3 8 4 4 10 10 3 3 4 3 4 7 1 4 9 12 20 14 15 20 20
3 2 3 3 3 1 3 4 3 5 3 3 4 6 4 5 2 2 2 3 1 1 3 2 3 4 6 12 3 11 8 3 2 5 3 5 3 1 5 9 14 12 19 15 15
4 3 1 4 3 1 3 3 5 4 6 3 3 5 3 2 1 2 4 4 7 6 3 3 2 4 5 2 3 3 6 5 4 3 4 2 5 5 6 13 13 12 15 9 7
2 3 1 1 2 6 6 4 4 4 4 4 3 6 4 3 1 3 5 4 9 5 4 2 2 4 5 10 7 10 11 13 10 4 8 8 8 5 7 14 15 14 15 9 24
2 3 4 3 1 6 5 4 8 4 2 2 4 5 3 2 3 1 3 4 5 3 2 2 5 5 9 13 13 12 11 11 11 6 4 12 2 4 5 9 9 9 9 18 18
3 3 3 3 5 9 5 4 6 7 4 2 5 3 2 3 5 5 3 2 5 3 6 1 3 2 5 11 9 8 13 14 11 14 10 8 8 11 9 5 9 13 17 17 14
1 1 4 2 4 5 4 5 5 6 1 6 6 3 2 5 6 8 7 6 9 4 2 2 2 3 4 5 6 3 13 9 4 11 8 10 7 11 13 10 12 12 11 12 13
Wind_Direction
319 325 327 331 335 335 334 333 333 330 327 325 324 327 331 335 320 284 239 225 184 238 288 295 282 286 37 251 201 126 220 222 235 232 257 293 300 334 310 344 320 295 179 183 158
311 320 322 326 330 329 331 329 329 326 324 324 323 326 328 334 300 278 246 248 242 249 255 299 294 11 259 255 216 172 214 228 235 244 277 289 291 319 341 328 321 337 24 115 136
306 316 318 322 324 326 325 326 325 322 322 321 322 323 324 327 319 263 200 214 209 196 260 300 287 205 205 215 232 233 242 264 271 272 274 280 289 286 214 250 272 15 318 288 158
289 304 312 320 320 321 323 321 322 319 319 321 320 317 316 270 292 271 205 208 206 221 278 266 282 209 246 242 238 252 270 265 268 263 266 270 270 276 227 213 245 257 175 250 319
270 295 310 316 316 318 319 316 318 318 319 321 320 316 331 338 253 273 227 251 243 192 230 260 281 225 221 245 315 248 256 260 258 259 260 264 260 261 274 228 243 257 198 219 220
251 276 305 312 315 316 317 316 313 313 314 317 322 313 308 263 235 146 249 258 251 240 278 203 242 278 264 269 259 297 293 276 275 284 269 271 276 284 301 237 242 255 267 209 233
236 268 296 305 313 312 311 310 306 304 303 309 309 256 290 245 231 322 254 263 274 214 275 270 238 135 319 329 279 296 307 312 271 260 274 293 279 259 259 280 238 236 262 276 226
228 256 288 301 307 307 306 304 299 296 295 287 270 248 249 257 285 288 319 309 277 272 200 252 277 273 180 268 338 335 304 294 77 355 284 126 277 293 280 254 269 272 252 256 280
236 256 287 301 305 308 308 307 295 287 261 237 155 177 268 306 291 291 240 279 294 285 282 253 92 215 319 347 2 287 266 270 292 232 263 220 281 244 293 301 282 289 306 298 302
255 272 281 298 306 311 314 305 304 107 215 211 252 320 260 311 302 296 265 256 250 277 337 337 59 189 357 87 235 242 260 261 275 314 301 281 278 285 255 276 270 257 282 294 298
230 265 282 296 306 314 336 14 13 8 348 218 195 252 274 289 286 281 292 25 17 54 328 273 116 220 231 221 224 227 252 263 270 271 214 267 273 276 273 242 257 255 260 283 287
204 268 288 301 307 310 212 94 153 195 311 251 251 261 258 261 310 315 10 60 41 338 4 9 250 243 285 256 246 247 249 264 273 269 207 255 263 270 271 232 236 263 254 258 278
208 246 295 314 317 305 117 122 123 100 209 291 212 220 248 56 277 308 24 73 51 329 355 217 262 309 340 330 328 300 248 285 291 323 287 279 278 277 284 268 259 253 243 249 256
219 261 299 321 315 268 52 195 98 109 68 232 204 233 206 83 282 337 312 93 11 315 320 274 302 337 322 313 265 295 310 294 298 322 295 162 282 273 283 272 262 263 266 250 251
201 268 308 321 299 83 232 233 125 75 341 164 146 152 284 95 290 155 360 25 289 281 164 255 297 301 307 265 332 297 312 294 292 280 293 278 234 294 238 279 291 290 276 251 231
202 289 317 101 162 255 225 35 68 74 238 181 137 142 52 354 307 337 34 25 276 275 238 241 249 273 355 348 346 334 352 333 266 243 254 268 258 248 273 265 274 275 269 266 208
199 272 280 299 183 194 30 40 69 171 153 138 118 71 28 250 304 64 40 354 358 334 332 302 302 2 45 357 347 2 358 329 295 232 258 273 267 256 267 279 266 274 271 273 270
201 287 259 236 230 74 84 54 208 129 71 78 72 2 187 13 68 34 41 3 7 338 306 358 343 21 351 54 315 301 96 211 291 308 312 308 268 260 13 6 332 340 277 258 286
122 216 249 245 182 82 87 131 189 28 62 82 36 165 82 21 53 41 15 35 30 29 8 328 263 356 2 327 15 308 264 275 263 270 257 252 277 276 357 358 342 345 313 183 223
152 165 232 180 127 76 93 153 87 51 30 25 93 55 72 29 59 50 337 61 2 15 332 292 303 314 305 320 280 225 299 328 290 300 275 259 331 351 355 344 346 357 353 13 356
125 116 251 169 88 63 150 132 111 89 78 57 77 75 56 28 27 11 317 81 16 322 336 358 224 305 355 319 310 305 282 260 252 242 288 293 210 284 5 14 356 9 358 19 8
147 97 234 115 91 163 140 112 126 124 84 113 82 59 77 37 330 310 333 211 263 281 328 322 270 295 284 271 206 20 9 336 313 346 258 289 299 317 43 12 18 2 333 29 344
146 128 305 98 145 148 142 80 63 75 53 63 71 74 58 97 307 281 325 331 27 354 342 340 330 308 301 313 211 335 292 245 244 219 281 310 276 67 21 28 38 21 332 328 229
121 106 357 186 228 129 127 124 107 61 87 97 54 64 74 3 74 290 353 317 327 287 292 187 229 226 264 275 283 288 304 311 294 240 258 255 272 2 25 41 25 352 335 7 47
65 198 172 199 297 120 105 103 131 120 102 91 66 93 129 217 292 203 248 282 286 296 98 183 239 252 267 275 273 276 282 301 307 285 223 275 331 50 34 57 19 320 24 29 33
131 133 54 103 105 90 79 150 149 111 111 90 116 168 169 213 184 244 268 211 249 316 325 179 261 163 273 269 275 322 13 345 24 353 356 58 59 353 1 76 78 16 14 28 22
279 338 101 357 94 98 179 125 125 114 127 153 172 137 234 215 225 239 228 233 247 263 298 273 274 298 262 272 300 99 5 354 58 31 353 38 351 346 1 37 35 32 20 15 10